KT5AL Weather Reports


Display with metric or nautical units.
time (UTC)temp
F
wind
direction
speed
MPH
gust
MPH
rain 1hr
in
rain 24hr
in
rain mn
in
humidity
%
barometer
mb
20260508161512 69 157 7.0 9.0 0.00 0.09 0.09 82 1013.4
20260508161008 68 157 10.0 13.0 0.00 0.09 0.09 79 1013.4
20260508160006 68 157 11.0 15.0 0.00 0.09 0.09 75 1013.8
20260508155505 68 157 10.0 14.0 0.00 0.09 0.09 76 1013.8
20260508155010 67 157 12.0 14.0 0.00 0.09 0.09 78 1013.8
20260508154505 68 180 12.0 15.0 0.00 0.09 0.09 75 1013.8
20260508154008 68 180 11.0 13.0 0.00 0.09 0.09 74 1013.8
20260508153505 68 180 10.0 11.0 0.00 0.09 0.09 77 1010.4
20260508153008 67 180 10.0 12.0 0.00 0.09 0.09 77 1010.4
20260508152505 67 157 6.0 10.0 0.00 0.09 0.09 81 1014.1
20260508152005 67 180 11.0 14.0 0.00 0.09 0.09 78 1014.1
20260508151507 68 157 11.0 13.0 0.00 0.09 0.09 83 1014.4
20260508151004 67 157 9.0 12.0 0.00 0.09 0.09 85 1014.4
20260508150008 67 112 7.0 10.0 0.00 0.09 0.09 86 1014.4
20260508145505 67 157 8.0 10.0 0.00 0.09 0.09 87 1014.4
20260508145008 67 157 9.0 12.0 0.00 0.09 0.09 88 1014.4
20260508144008 66 157 8.0 10.0 0.00 0.09 0.09 90 1014.4
20260508143006 65 157 8.0 10.0 0.00 0.09 0.09 97 1015.1
20260508142511 64 157 7.0 9.0 0.00 0.09 0.09 98 1015.4
20260508141507 64 157 7.0 10.0 0.00 0.09 0.09 98 1015.8
20260508141012 63 157 6.0 9.0 0.00 0.09 0.09 98 1015.8
20260508140508 63 157 7.0 8.0 0.00 0.09 0.09 99 1015.8
20260508135506 63 112 5.0 6.0 0.00 0.09 0.09 100 1015.8
20260508135011 64 180 6.0 7.0 0.00 0.09 0.09 100 1015.8
20260508134506 63 135 5.0 7.0 0.00 0.09 0.09 100 1015.8
20260508134011 63 157 2.0 4.0 0.00 0.09 0.09 100 1015.8
20260508133506 62 112 3.0 4.0 0.00 0.09 0.09 100 1015.8
20260508133004 62 112 5.0 6.0 0.00 0.09 0.09 100 1015.8
20260508132507 62 135 4.0 6.0 0.00 0.09 0.09 100 1016.1
20260508132004 62 112 4.0 6.0 0.00 0.09 0.09 100 1016.1
20260508131507 61 157 4.0 6.0 0.00 0.09 0.09 100 1016.1
20260508131005 61 157 5.0 7.0 0.00 0.09 0.09 100 1016.1
20260508130533 61 180 4.0 5.0 0.00 0.09 0.09 100 1016.1
20260508125006 60 135 4.0 6.0 0.00 0.09 0.09 100 1016.5
20260508124508 60 157 6.0 7.0 0.00 0.09 0.09 100 1016.5
20260508124004 60 157 7.0 10.0 0.00 0.09 0.09 100 1016.5
20260508123507 60 157 8.0 9.0 0.00 0.09 0.09 100 1016.5
20260508123003 60 157 6.0 7.0 0.00 0.09 0.09 100 1016.5
20260508122506 60 112 6.0 7.0 0.00 0.09 0.09 100 1016.5
20260508122003 59 157 3.0 4.0 0.00 0.09 0.09 100 1016.5
20260508121507 59 180 2.0 4.0 0.00 0.09 0.09 100 1016.5
20260508121011 59 157 4.0 7.0 0.00 0.09 0.09 100 1016.5
20260508120506 59 157 7.0 11.0 0.00 0.09 0.09 100 1017.1
20260508120009 59 157 8.0 9.0 0.00 0.09 0.09 100 1017.1
20260508115506 59 225 0.0 0.0 0.00 0.09 0.09 100 1017.1
20260508115009 59 202 0.0 1.0 0.00 0.09 0.09 100 1017.1
20260508114506 59 157 4.0 5.0 0.00 0.09 0.09 100 1016.8
20260508113504 59 202 3.0 4.0 0.00 0.09 0.09 100 1016.8
20260508112508 59 157 6.0 7.0 0.00 0.09 0.09 100 1016.5
20260508112005 59 202 4.0 5.0 0.00 0.09 0.09 100 1016.5
20260508111508 59 157 5.0 7.0 0.00 0.09 0.09 100 1016.1
20260508111005 59 157 6.0 8.0 0.00 0.09 0.09 100 1016.1
20260508110508 59 135 9.0 12.0 0.00 0.09 0.09 100 1016.1
20260508110031 60 202 8.0 10.0 0.00 0.06 0.06 100 1016.1
20260508105508 60 180 10.0 11.0 0.00 0.01 0.01 100 1015.8
20260508105005 60 180 9.0 10.0 0.00 0.00 0.00 100 1015.8
20260508104508 60 157 4.0 5.0 0.00 0.00 0.00 100 1015.8
20260508104005 60 135 4.0 5.0 0.00 0.00 0.00 100 1015.8
20260508103508 60 157 3.0 4.0 0.00 0.00 0.00 100 1016.1
20260508103005 60 157 8.0 10.0 0.00 0.00 0.00 100 1016.1
20260508102504 60 180 10.0 11.0 0.00 0.00 0.00 100 1016.1
20260508102007 60 157 11.0 14.0 0.00 0.00 0.00 99 1016.1
20260508101505 60 202 4.0 4.0 0.00 0.00 0.00 99 1015.8
20260508101008 60 202 0.0 3.0 0.00 0.00 0.00 99 1015.8
20260508100505 60 112 4.0 5.0 0.00 0.00 0.00 99 1016.5
20260508100008 60 202 3.0 4.0 0.00 0.00 0.00 99 1016.5
20260508095505 60 270 6.0 6.0 0.00 0.00 0.00 99 1015.8
20260508095003 60 292 4.0 5.0 0.00 0.00 0.00 98 1015.8
20260508094506 60 337 0.0 1.0 0.00 0.00 0.00 99 1015.8
20260508094003 60 337 0.0 1.0 0.00 0.00 0.00 98 1015.8
20260508093506 60 337 0.0 1.0 0.00 0.00 0.00 98 1015.8
20260508093003 60 337 3.0 4.0 0.00 0.00 0.00 97 1015.8
20260508092506 60 202 2.0 3.0 0.00 0.00 0.00 97 1015.4
20260508092003 60 157 4.0 6.0 0.00 0.00 0.00 96 1015.4
20260508091007 60 157 3.0 4.0 0.00 0.00 0.00 95 1015.8
20260508090505 60 180 5.0 6.0 0.00 0.00 0.00 96 1015.8
20260508090008 60 180 6.0 7.0 0.00 0.00 0.00 95 1015.8
20260508085531 60 157 6.0 7.0 0.00 0.00 0.00 95 1015.8
20260508085007 60 157 6.0 7.0 0.00 0.00 0.00 95 1015.8
20260508084504 60 202 5.0 7.0 0.00 0.00 0.00 95 1016.1
20260508084007 60 180 4.0 5.0 0.00 0.00 0.00 95 1016.1
20260508083504 60 202 4.0 5.0 0.00 0.00 0.00 95 1016.1
20260508083006 60 180 4.0 5.0 0.00 0.00 0.00 94 1016.1
20260508082511 60 157 6.0 6.0 0.00 0.00 0.00 95 1016.1
20260508082006 60 157 4.0 5.0 0.00 0.00 0.00 94 1016.1
20260508081509 60 202 4.0 5.0 0.00 0.00 0.00 94 1016.1
20260508081006 60 157 7.0 8.0 0.00 0.00 0.00 94 1016.1
20260508080503 60 112 5.0 6.0 0.00 0.00 0.00 94 1016.5
20260508080004 60 135 5.0 7.0 0.00 0.00 0.00 95 1016.5
20260508075507 60 180 6.0 8.0 0.00 0.00 0.00 96 1016.8
20260508075004 60 202 6.0 7.0 0.00 0.00 0.00 96 1016.8
20260508074507 60 202 2.0 3.0 0.00 0.00 0.00 98 1016.8
20260508074004 60 157 3.0 4.0 0.00 0.00 0.00 98 1016.8
20260508073506 59 202 0.0 1.0 0.00 0.00 0.00 99 1017.1
20260508073003 59 180 0.0 0.0 0.00 0.00 0.00 99 1017.1
20260508072506 59 180 4.0 5.0 0.00 0.00 0.00 99 1017.8
20260508072004 59 180 5.0 6.0 0.00 0.00 0.00 99 1017.8
20260508071507 59 202 7.0 8.0 0.00 0.00 0.00 99 1017.8
20260508071004 59 225 8.0 8.0 0.00 0.00 0.00 97 1017.8
20260508070506 59 337 3.0 3.0 0.00 0.00 0.00 97 1017.5
20260508070004 59 337 4.0 5.0 0.00 0.00 0.00 96 1017.5
20260508065514 59 360 5.0 5.0 0.00 0.00 0.00 97 1017.8
20260508064507 60 315 1.0 4.0 0.00 0.00 0.00 93 1017.8
20260508064004 60 247 0.0 0.0 0.00 0.00 0.00 90 1017.8
20260508063507 60 247 0.0 0.0 0.00 0.00 0.00 89 1017.8
20260508063004 60 247 0.0 0.0 0.00 0.00 0.00 89 1017.8
20260508062507 60 247 0.0 0.0 0.00 0.00 0.00 89 1017.5
20260508062004 60 247 0.0 0.0 0.00 0.00 0.00 88 1017.5
20260508061507 60 247 0.0 1.0 0.00 0.00 0.00 88 1017.8
20260508061004 60 247 0.0 0.0 0.00 0.00 0.00 88 1017.8
20260508060507 61 247 3.0 4.0 0.00 0.00 0.00 88 1017.8
20260508060005 61 225 4.0 4.0 0.00 0.00 0.00 85 1017.8
20260508055508 60 90 0.0 0.0 0.00 0.00 0.00 85 1017.8
20260508055031 60 90 2.0 3.0 0.00 0.00 0.00 85 1017.8
20260508053508 60 90 2.0 3.0 0.00 0.00 0.00 84 1017.5
20260508053005 60 90 0.0 0.0 0.00 0.00 0.00 84 1017.5
20260508052508 60 90 0.0 0.0 0.00 0.00 0.00 85 1017.5
20260508052008 60 90 0.0 0.0 0.00 0.00 0.00 85 1017.5
20260508051506 60 90 0.0 0.0 0.00 0.00 0.00 85 1017.5
20260508050504 61 90 2.0 3.0 0.00 0.00 0.00 85 1017.5
20260508045508 61 90 5.0 5.0 0.00 0.00 0.00 83 1017.8
20260508045005 61 202 0.0 0.0 0.00 0.00 0.00 84 1017.8
20260508044508 61 202 0.0 0.0 0.00 0.00 0.00 83 1017.8
20260508044005 61 202 0.0 1.0 0.00 0.00 0.00 84 1017.8
20260508043508 61 202 3.0 3.0 0.00 0.00 0.00 83 1017.8
20260508043009 61 202 3.0 3.0 0.00 0.00 0.00 83 1017.8
20260508042507 61 202 0.0 0.0 0.00 0.00 0.00 83 1017.5
20260508042004 61 202 0.0 0.0 0.00 0.00 0.00 82 1017.5
20260508041507 61 202 0.0 0.0 0.00 0.00 0.00 81 1017.5
20260508041004 61 202 0.0 0.0 0.00 0.00 0.00 80 1017.5
20260508040507 61 202 2.0 3.0 0.00 0.00 0.00 80 1017.8
20260508040004 61 202 3.0 4.0 0.00 0.00 0.00 80 1017.8
20260508035507 61 157 3.0 3.0 0.00 0.00 0.00 79 1017.5
20260508035004 61 157 2.0 3.0 0.00 0.00 0.00 80 1017.5
20260508034533 61 157 3.0 3.0 0.00 0.00 0.00 80 1017.5
20260508034004 61 157 2.0 2.0 0.00 0.00 0.00 79 1017.5
20260508033507 61 157 3.0 3.0 0.00 0.00 0.00 78 1017.5
20260508033004 61 157 2.0 3.0 0.00 0.00 0.00 79 1017.5
20260508032507 61 157 0.0 0.0 0.00 0.00 0.00 78 1017.1
20260508032004 61 157 1.0 2.0 0.00 0.00 0.00 77 1017.1
20260508031507 62 157 2.0 2.0 0.00 0.00 0.00 77 1017.1
20260508031004 62 157 3.0 4.0 0.00 0.00 0.00 76 1017.1
20260508030507 62 157 3.0 4.0 0.00 0.00 0.00 76 1016.8
20260508030004 62 135 4.0 4.0 0.00 0.00 0.00 75 1016.8
20260508025506 62 157 4.0 5.0 0.00 0.00 0.00 74 1016.5
20260508025009 63 157 3.0 4.0 0.00 0.00 0.00 72 1016.5
20260508024506 63 135 4.0 4.0 0.00 0.00 0.00 72 1016.5
20260508024009 63 135 3.0 3.0 0.00 0.00 0.00 72 1016.5
20260508023506 63 157 3.0 4.0 0.00 0.00 0.00 72 1016.5
20260508023008 64 157 3.0 5.0 0.00 0.00 0.00 72 1016.5
20260508022505 64 157 5.0 6.0 0.00 0.00 0.00 72 1015.8
20260508022008 64 180 4.0 5.0 0.00 0.00 0.00 72 1015.8
20260508021505 64 180 5.0 6.0 0.00 0.00 0.00 71 1015.8
20260508021008 64 180 5.0 7.0 0.00 0.00 0.00 71 1015.8
20260508020505 64 157 5.0 6.0 0.00 0.00 0.00 70 1015.8
20260508020008 65 157 4.0 6.0 0.00 0.00 0.00 69 1015.8
20260508015505 65 157 5.0 7.0 0.00 0.00 0.00 69 1015.4
20260508015008 65 157 5.0 7.0 0.00 0.00 0.00 69 1015.4
20260508014505 65 180 5.0 7.0 0.00 0.00 0.00 67 1015.4
20260508014028 66 157 5.0 7.0 0.00 0.00 0.00 66 1015.4
20260508013505 66 135 8.0 10.0 0.00 0.00 0.00 66 1015.1
20260508013008 67 157 4.0 7.0 0.00 0.00 0.00 62 1015.1
20260508012505 67 135 5.0 6.0 0.00 0.00 0.00 60 1015.1
20260508012008 68 157 6.0 8.0 0.00 0.00 0.00 59 1015.1
20260508011505 68 180 6.0 8.0 0.00 0.00 0.00 57 1015.1
20260508011008 68 180 5.0 6.0 0.00 0.00 0.00 56 1015.1
20260508010505 68 180 6.0 7.0 0.00 0.00 0.00 56 1015.1
20260508010008 68 180 6.0 6.0 0.00 0.00 0.00 56 1015.1
20260508005505 69 180 6.0 7.0 0.00 0.00 0.00 55 1014.4
20260508005010 69 180 4.0 5.0 0.00 0.00 0.00 53 1014.4
20260508004505 69 157 4.0 6.0 0.00 0.00 0.00 53 1014.4
20260508004008 69 157 3.0 4.0 0.00 0.00 0.00 51 1014.4
20260508003505 69 157 2.0 3.0 0.00 0.00 0.00 51 1014.4
20260508003003 70 157 3.0 4.0 0.00 0.00 0.00 50 1014.4
20260508002507 70 180 4.0 5.0 0.00 0.00 0.00 50 1014.4
20260508002004 71 135 5.0 7.0 0.00 0.00 0.00 50 1014.4
20260508001507 71 180 4.0 5.0 0.00 0.00 0.00 50 1013.8
20260508001004 72 157 4.0 5.0 0.00 0.00 0.00 49 1013.8
20260508000507 72 135 5.0 6.0 0.00 0.00 0.00 48 1014.1
20260508000004 73 157 6.0 7.0 0.00 0.00 0.00 46 1014.1
20260507235507 73 180 5.0 8.0 0.00 0.00 0.00 46 1013.8
20260507235004 73 135 6.0 8.0 0.00 0.00 0.00 46 1013.8
20260507234507 74 157 8.0 9.0 0.00 0.00 0.00 44 1013.4
20260507234004 74 157 5.0 7.0 0.00 0.00 0.00 45 1013.4
20260507233545 74 157 5.0 9.0 0.00 0.00 0.00 45 1013.4
20260507233003 74 112 4.0 6.0 0.00 0.00 0.00 45 1013.4
20260507232506 74 157 3.0 4.0 0.00 0.00 0.00 45 1013.8
20260507232003 74 112 3.0 9.0 0.00 0.00 0.00 45 1013.8
20260507231506 73 135 6.0 8.0 0.00 0.00 0.00 46 1013.8
20260507231003 73 112 5.0 8.0 0.00 0.00 0.00 47 1013.8
20260507230506 73 112 7.0 8.0 0.00 0.00 0.00 46 1013.8
20260507230003 73 157 6.0 7.0 0.00 0.00 0.00 46 1013.8
20260507225506 73 90 6.0 7.0 0.00 0.00 0.00 45 1014.1
20260507225003 73 135 5.0 6.0 0.00 0.00 0.00 46 1014.1
20260507224505 73 112 6.0 8.0 0.00 0.00 0.00 48 1014.4
20260507224008 72 90 6.0 7.0 0.00 0.00 0.00 48 1014.4
20260507223505 72 112 3.0 3.0 0.00 0.00 0.00 48 1014.4
20260507223008 71 157 4.0 5.0 0.00 0.00 0.00 48 1014.4
20260507222504 71 135 6.0 8.0 0.00 0.00 0.00 47 1014.8
20260507222007 72 90 5.0 6.0 0.00 0.00 0.00 47 1014.8
20260507221504 72 90 3.0 7.0 0.00 0.00 0.00 48 1014.8
20260507221007 72 157 4.0 6.0 0.00 0.00 0.00 48 1014.8
20260507220504 72 112 6.0 8.0 0.00 0.00 0.00 49 1014.8
20260507220007 71 157 6.0 8.0 0.00 0.00 0.00 48 1014.8
20260507215504 71 112 6.0 8.0 0.00 0.00 0.00 48 1014.8
20260507215005 72 135 6.0 8.0 0.00 0.00 0.00 48 1014.8
20260507214508 72 157 4.0 6.0 0.00 0.00 0.00 47 1014.8
20260507214005 72 157 4.0 6.0 0.00 0.00 0.00 46 1014.8
20260507213508 73 157 8.0 10.0 0.00 0.00 0.00 46 1014.4
20260507213032 73 90 5.0 7.0 0.00 0.00 0.00 46 1014.4
20260507212508 73 180 5.0 9.0 0.00 0.00 0.00 46 1014.4
20260507212003 73 90 5.0 7.0 0.00 0.00 0.00 47 1014.4
20260507211506 73 180 7.0 10.0 0.00 0.00 0.00 46 1015.1
20260507211003 73 112 1.0 6.0 0.00 0.00 0.00 47 1015.1
20260507210506 71 22 4.0 5.0 0.00 0.00 0.00 49 1014.8
20260507210003 71 22 5.0 8.0 0.00 0.00 0.00 48 1014.8
20260507205506 72 67 7.0 8.0 0.00 0.00 0.00 46 1014.8
20260507205009 72 67 6.0 8.0 0.00 0.00 0.00 47 1014.8
20260507204506 71 360 1.0 2.0 0.00 0.00 0.00 48 1014.8
20260507204009 71 67 6.0 9.0 0.00 0.00 0.00 48 1014.8
20260507203506 71 22 5.0 7.0 0.00 0.00 0.00 47 1015.1
20260507203008 71 67 8.0 10.0 0.00 0.00 0.00 48 1015.1
20260507202505 71 22 6.0 7.0 0.00 0.00 0.00 47 1015.4
20260507202010 71 315 4.0 6.0 0.00 0.00 0.00 47 1015.4
20260507201505 71 45 4.0 6.0 0.00 0.00 0.00 48 1015.4
20260507201008 71 45 7.0 9.0 0.00 0.00 0.00 47 1015.4
20260507200505 71 45 7.0 11.0 0.00 0.00 0.00 48 1015.8
20260507200008 71 22 6.0 8.0 0.00 0.00 0.00 48 1015.8
20260507195505 70 360 4.0 6.0 0.00 0.00 0.00 48 1015.8
20260507195006 70 45 5.0 7.0 0.00 0.00 0.00 49 1015.8
20260507194503 70 45 9.0 12.0 0.00 0.00 0.00 48 1015.8
20260507194006 70 112 6.0 9.0 0.00 0.00 0.00 48 1015.8
20260507193503 71 337 7.0 10.0 0.00 0.00 0.00 50 1016.5
20260507193006 70 337 7.0 8.0 0.00 0.00 0.00 48 1016.5
20260507192534 70 67 6.0 7.0 0.00 0.00 0.00 50 1016.5
20260507192005 69 360 9.0 11.0 0.00 0.00 0.00 51 1016.5
20260507191508 70 22 9.0 14.0 0.00 0.00 0.00 50 1016.5
20260507191005 71 90 5.0 7.0 0.00 0.00 0.00 48 1016.5
20260507190508 71 292 4.0 7.0 0.00 0.00 0.00 51 1016.8
20260507190006 69 22 4.0 10.0 0.00 0.00 0.00 50 1016.8
20260507185511 70 67 7.0 10.0 0.00 0.00 0.00 50 1016.8
20260507185006 69 67 9.0 10.0 0.00 0.00 0.00 49 1016.8
20260507184509 68 22 9.0 11.0 0.00 0.00 0.00 49 1017.1
20260507184006 69 67 7.0 10.0 0.00 0.00 0.00 52 1017.1
20260507183503 69 67 5.0 6.0 0.00 0.00 0.00 50 1017.1
20260507183006 69 45 8.0 10.0 0.00 0.00 0.00 52 1017.1
20260507182509 68 360 5.0 7.0 0.00 0.00 0.00 51 1017.1
20260507182006 68 22 10.0 14.0 0.00 0.00 0.00 51 1017.1
20260507181509 67 337 8.0 10.0 0.00 0.00 0.00 50 1017.5
20260507181006 68 337 3.0 4.0 0.00 0.00 0.00 51 1017.5
20260507180503 67 337 7.0 10.0 0.00 0.00 0.00 49 1017.8
20260507180006 68 22 8.0 12.0 0.00 0.00 0.00 51 1017.8
20260507175503 67 337 5.0 8.0 0.00 0.00 0.00 50 1018.2
20260507175006 67 45 7.0 10.0 0.00 0.00 0.00 50 1018.2
20260507174503 68 67 6.0 10.0 0.00 0.00 0.00 53 1018.5
20260507174005 66 337 5.0 8.0 0.00 0.00 0.00 50 1018.5
20260507173510 66 22 8.0 12.0 0.00 0.00 0.00 50 1018.5
20260507173006 67 360 6.0 7.0 0.00 0.00 0.00 53 1018.5
20260507172503 67 315 7.0 9.0 0.00 0.00 0.00 50 1018.8
20260507172038 67 337 6.0 9.0 0.00 0.00 0.00 50 1018.8
20260507171503 66 45 7.0 9.0 0.00 0.00 0.00 53 1019.2
20260507171006 66 22 6.0 11.0 0.00 0.00 0.00 53 1019.2
20260507170503 66 22 7.0 9.0 0.00 0.00 0.00 50 1019.2
20260507170006 66 45 7.0 12.0 0.00 0.00 0.00 50 1019.2
20260507165503 65 67 8.0 10.0 0.00 0.00 0.00 52 1019.2
20260507165006 65 90 0.0 4.0 0.00 0.00 0.00 52 1019.2
20260507164503 65 45 8.0 10.0 0.00 0.00 0.00 55 1019.2
20260507164006 65 67 6.0 9.0 0.00 0.00 0.00 52 1019.2
20260507163505 65 22 8.0 10.0 0.00 0.00 0.00 53 1019.5
20260507163008 65 360 5.0 7.0 0.00 0.00 0.00 57 1019.5
20260507162505 65 360 8.0 10.0 0.00 0.00 0.00 55 1019.9
20260507162003 65 45 7.0 10.0 0.00 0.00 0.00 57 1019.9